Regional Weather Roundup
Issued by NWS

Home | Current Version | Previous Version | Graphics & Text | Print | Product List | Glossary On
Versions: 1 2 3 4 5 6 7 8 9 10 11 12 13 14 15 16 17 18 19 20 21 22 23 24 25 26 27 28 29 30 31 32 33 34 35 36 37 38 39 40 41 42 43 44 45 46 47 48 49 50
000
ASUS43 KMKX 031811
RWRWI

WISCONSIN REGIONAL WEATHER ROUNDUP
NATIONAL WEATHER SERVICE MILWAUKEE/SULLIVAN WI
100 PM CDT FRI JUL 03 2015

NOTE: "FAIR" INDICATES FEW OR NO CLOUDS BELOW 12,000 FEET WITH NO
SIGNIFICANT WEATHER AND/OR OBSTRUCTIONS TO VISIBILITY.

WIZ001-002-006>008-014>016-023>028-031900-
NORTHWEST WISCONSIN

CITY           SKY/WX    TMP DP  RH WIND       PRES   REMARKS
SUPERIOR ARPT  SUNNY     76  65  68 W5        29.87S
6HR MIN TEMP:  61; 6HR MAX TEMP:  76;

ASHLAND        SUNNY     75  63  66 SW9       29.87F
6HR MIN TEMP:  63; 6HR MAX TEMP:  75;

HAYWARD        PTSUNNY   74  56  53 SW12      29.92F
6HR MIN TEMP:  54; 6HR MAX TEMP:  74;

SIREN          PTSUNNY   76  57  51 W9        29.92F
6HR MIN TEMP:  60; 6HR MAX TEMP:  76;

CUMBERLAND     MOSUNNY   72  54  53 W5        29.95S
RICE LAKE      MOSUNNY   74  55  51 SW6       29.95F
6HR MIN TEMP:  55; 6HR MAX TEMP:  74;

CHETEK         SUNNY     74  56  54 SW6       29.95S
6HR MIN TEMP:  55; 6HR MAX TEMP:  74;

LADYSMITH      MOSUNNY   74  56  53 W8        29.96F
6HR MIN TEMP:  55; 6HR MAX TEMP:  74;

EAU CLAIRE     MOSUNNY   75  56  51 SW12      29.95F
6HR MIN TEMP:  57; 6HR MAX TEMP:  76;

MENOMONIE      MOSUNNY   76  56  49 SW9       29.96S
6HR MIN TEMP:  56; 6HR MAX TEMP:  76;

NEW RICHMOND   MOSUNNY   75  57  53 W7        29.96S
6HR MIN TEMP:  57; 6HR MAX TEMP:  75;

OSCEOLA        SUNNY     76  57  52 SW6       29.97S
6HR MIN TEMP:  56; 6HR MAX TEMP:  76;

$$

WIZ003>005-009-010-017-018-031900-
NORTH CENTRAL WISCONSIN

CITY           SKY/WX    TMP DP  RH WIND       PRES   REMARKS
MANITOWISH WTR CLOUDY    69  56  63 SW10      29.92F
6HR MIN TEMP:  55; 6HR MAX TEMP:  69;

ARBOR VITAE    PTSUNNY   72  57  59 W10       29.93S
6HR MIN TEMP:  57; 6HR MAX TEMP:  72;

WOODRUFF       PTSUNNY   72  57  59 W10       29.93S
6HR MIN TEMP:  57; 6HR MAX TEMP:  72;

RHINELANDER    MOSUNNY   74  54  49 SW13G18   29.95S
6HR MIN TEMP:  56; 6HR MAX TEMP:  74;

EAGLE RIVER    PTSUNNY   72  54  53 SW13      29.92F
LAND O LAKES   PTSUNNY   71  54  55 W10G16    29.92F
6HR MIN TEMP:  56; 6HR MAX TEMP:  71;

PHILLIPS       MOSUNNY   71  55  56 SW9       29.94S
6HR MIN TEMP:  54; 6HR MAX TEMP:  71;

TOMAHAWK       MOSUNNY   71  55  56 SW6       29.95S
6HR MIN TEMP:  49; 6HR MAX TEMP:  72;

MEDFORD        PTSUNNY   72  56  58 SW8       29.96S
6HR MIN TEMP:  53; 6HR MAX TEMP:  72;

MERRILL        MOSUNNY   73  58  57 W10       29.95F
6HR MIN TEMP:  48; 6HR MAX TEMP:  73;

$$

WIZ029-030-035-036-043>047-031900-
CENTRAL WISCONSIN

CITY           SKY/WX    TMP DP  RH WIND       PRES   REMARKS
WAUSAU         MOSUNNY   73  56  54 W7        29.95F
6HR MIN TEMP:  53; 6HR MAX TEMP:  74;

MOSINEE        MOSUNNY   72  57  60 SW10      29.98F
MARSHFIELD     MOSUNNY   74  56  53 W8        29.97F
6HR MIN TEMP:  54; 6HR MAX TEMP:  74;

STEVENS POINT  MOSUNNY   70  51  52 NW3       29.97F
6HR MIN TEMP:  48; 6HR MAX TEMP:  71;

WAUPACA        SUNNY     76  52  42 NW7       29.97F
6HR MIN TEMP:  53; 6HR MAX TEMP:  76;

WAUTOMA        SUNNY     75  52  44 CALM      29.97F
6HR MIN TEMP:  51; 6HR MAX TEMP:  75;

WISC RAPIDS    MOSUNNY   73  51  46 CALM      29.98F
6HR MIN TEMP:  53; 6HR MAX TEMP:  74;

CAMP DOUGLAS   MOSUNNY   74  58  55 VRB2      29.97S
6HR MIN TEMP:  50; 6HR MAX TEMP:  74;

$$

WIZ011>013-019>022-031-037>040-048>050-031900-
NORTHEAST WISCONSIN

CITY           SKY/WX    TMP DP  RH WIND       PRES   REMARKS
ANTIGO         PTSUNNY   69  57  64 SW7       29.96F
SHAWANO        SUNNY     75  52  44 W6        29.95F
6HR MIN TEMP:  55; 6HR MAX TEMP:  75;

OCONTO         SUNNY     73  55  51 W10       29.94F
6HR MIN TEMP:  51; 6HR MAX TEMP:  73;

STURGEON BAY   SUNNY     70  54  56 SW12      29.97F
6HR MIN TEMP:  57; 6HR MAX TEMP:  70;

GREEN BAY      SUNNY     74  56  53 SW10      29.96F
6HR MIN TEMP:  55; 6HR MAX TEMP:  74;

MANITOWOC      SUNNY     72  57  59 MISG      29.97S
6HR MIN TEMP:  55; 6HR MAX TEMP:  73;

APPLETON       SUNNY     72  52  49 SW6       29.98F
CLINTONVILLE   SUNNY     73  50  43 W5        29.96F
OSHKOSH        SUNNY     73  53  49 SW5       29.97F
6HR MIN TEMP:  56; 6HR MAX TEMP:  73;

$$

WIZ032>034-041-042-053>061-031900-
SOUTHWEST WISCONSIN

CITY           SKY/WX    TMP DP  RH WIND       PRES   REMARKS
LA CROSSE      MOSUNNY   76  58  53 VRB5      29.96F
6HR MIN TEMP:  56; 6HR MAX TEMP:  76;

SPARTA         MOSUNNY   75  53  45 SW3       29.98S
6HR MIN TEMP:  48; 6HR MAX TEMP:  75;

VIROQUA        MOSUNNY   72  53  49 W3        30.00S
6HR MIN TEMP:  56; 6HR MAX TEMP:  73;

BOSCOBEL       SUNNY     75  54  47 VRB3      29.98F
6HR MIN TEMP:  55; 6HR MAX TEMP:  76;

PRAIRIE DU CHI SUNNY     72  52  49 SW3       29.98F
6HR MIN TEMP:  53; 6HR MAX TEMP:  73;

PLATTEVILLE    SUNNY     72  47  41 CALM      29.99F
6HR MIN TEMP:  54; 6HR MAX TEMP:  72;

$$

WIZ056-057-062-063-064-067-068-031900-
SOUTH CENTRAL WISCONSIN

CITY           SKY/WX    TMP DP  RH WIND       PRES   REMARKS
REEDSBURG      SUNNY     73  55  53 S6        29.97F
6HR MIN TEMP:  51; 6HR MAX TEMP:  73;

BARABOO/DELLS  SUNNY     73  51  46 CALM      29.97F
6HR MIN TEMP:  52; 6HR MAX TEMP:  73;

LONE ROCK      SUNNY     73  51  46 VRB3      29.98F
6HR MIN TEMP:  52; 6HR MAX TEMP:  73;

MINERAL POINT  SUNNY     72  46  40 CALM      30.00S
MADISON        MOSUNNY   72  49  44 VRB7      29.97F
6HR MIN TEMP:  53; 6HR MAX TEMP:  72;

MIDDLETON      SUNNY     74  49  41 CALM      29.99S
6HR MIN TEMP:  54; 6HR MAX TEMP:  74;

WATERTOWN      MOSUNNY   72  56  57 CALM      29.97F
6HR MIN TEMP:  54; 6HR MAX TEMP:  73;

MONROE         MOSUNNY   72  55  56 CALM      29.98F
JANESVILLE     MOSUNNY   75  55  50 W3        29.98S
$$

WIZ051-052-058>065-066-070>072-031900-
SOUTHEAST WISCONSIN

CITY           SKY/WX    TMP DP  RH WIND       PRES   REMARKS
MILWAUKEE      PTSUNNY   73  52  47 SE8       29.98F
6HR MIN TEMP:  58; 6HR MAX TEMP:  73;

WAUKESHA       MOSUNNY   70  52  52 CALM      29.99F
MILWAUKEE/TIMM SUNNY     73  45  35 E7        29.98F
RACINE         MOSUNNY   69  56  62 E9        30.00S
6HR MIN TEMP:  57; 6HR MAX TEMP:  73;

BURLINGTON     PTSUNNY   73  53  50 W3        29.98S
6HR MIN TEMP:  51; 6HR MAX TEMP:  73;

KENOSHA        MOSUNNY   73  54  51 VRB5      29.99S
6HR MIN TEMP:  56; 6HR MAX TEMP:  75;

FOND DU LAC    SUNNY     74  55  51 S10       29.97F
6HR MIN TEMP:  54; 6HR MAX TEMP:  74;

SHEBOYGAN      MOSUNNY   74  55  51 SW7       29.97F
6HR MIN TEMP:  53; 6HR MAX TEMP:  74;

WEST BEND      MOSUNNY   73  52  46 S6        29.97F
JUNEAU         SUNNY     70  54  56 SW3       29.98F
6HR MIN TEMP:  53; 6HR MAX TEMP:  71;

$$

LSZ147-162-031900-
LAKE SUPERIOR

STATION/POSITION TIME  TEMP    WIND        PRES    WAVE
                       AIR SEA DIR/SP/G            HT/PER
                 (UTC) (F)     (DEG/KT/KT) (MB)    (FT/S)
W MID LAKE BUOY  1750   48 39  230/ 12/ 12 1010.4S   1/ 4
DEVILS ISLAND    1800   65     230/ 12/ 14 1010.8S
SAXON HARBOR     1740   73     210/  4/ 13 1011.2F
$$

LMZ867-665-643>646-031900-
LAKE MICHIGAN

STATION/POSITION TIME  TEMP    WIND        PRES    WAVE
                       AIR SEA DIR/SP/G            HT/PER
                 (UTC) (F)     (DEG/KT/KT) (MB)    (FT/S)


USA.gov is the U.S. government's official web portal to all federal, state and local government web resources and services.